| time (UTC) | temp C | wind direction | speed KPH | gust KPH | rain 1hr cm | rain 24hr cm | rain mn cm | humidity % | barometer mb |
| 20260505011532 | 18 | 295 | 0.0 | 0.0 | 0.00 | 0.00 | 0.00 | 37 | 1004.0 |
| 20260505010033 | 19 | 295 | 0.0 | 0.0 | 0.00 | 0.00 | 0.00 | 36 | 1004.0 |
| 20260505004512 | 20 | 294 | 0.0 | 0.0 | 0.00 | 0.00 | 0.00 | 34 | 1004.2 |
| 20260505003012 | 20 | 290 | 0.0 | 0.0 | 0.00 | 0.00 | 0.00 | 33 | 1004.1 |
| 20260505001511 | 20 | 290 | 0.0 | 0.0 | 0.00 | 0.00 | 0.00 | 33 | 1004.1 |
| 20260505000014 | 20 | 290 | 0.0 | 0.0 | 0.00 | 0.00 | 0.00 | 32 | 1004.1 |
| 20260504234510 | 21 | 290 | 0.0 | 0.0 | 0.00 | 0.00 | 0.00 | 32 | 1004.0 |
| 20260504233010 | 22 | 290 | 0.0 | 0.0 | 0.00 | 0.00 | 0.00 | 31 | 1003.8 |
| 20260504231508 | 22 | 290 | 0.0 | 0.0 | 0.00 | 0.00 | 0.00 | 30 | 1003.9 |
| 20260504230007 | 22 | 302 | 0.0 | 0.0 | 0.00 | 0.00 | 0.00 | 30 | 1004.0 |
| 20260504224553 | 22 | 286 | 0.0 | 0.0 | 0.00 | 0.00 | 0.00 | 30 | 1004.2 |
| 20260504223100 | 22 | 313 | 0.0 | 0.0 | 0.00 | 0.00 | 0.00 | 29 | 1004.4 |
| 20260504221602 | 22 | 331 | 0.0 | 0.0 | 0.00 | 0.00 | 0.00 | 29 | 1004.5 |
| 20260504220049 | 23 | 360 | 0.0 | 0.0 | 0.00 | 0.00 | 0.00 | 29 | 1004.6 |
| 20260504214558 | 23 | 17 | 1.6 | 0.0 | 0.00 | 0.00 | 0.00 | 26 | 1004.7 |
| 20260504213100 | 23 | 57 | 1.6 | 0.0 | 0.00 | 0.00 | 0.00 | 27 | 1004.6 |
| 20260504211550 | 23 | 61 | 0.0 | 0.0 | 0.00 | 0.00 | 0.00 | 26 | 1004.4 |
| 20260504210047 | 23 | 63 | 1.6 | 0.0 | 0.00 | 0.00 | 0.00 | 26 | 1004.5 |
| 20260504204543 | 23 | 52 | 1.6 | 0.0 | 0.00 | 0.00 | 0.00 | 26 | 1004.6 |
| 20260504203043 | 22 | 50 | 0.0 | 0.0 | 0.00 | 0.00 | 0.00 | 25 | 1004.7 |
| 20260504201528 | 22 | 51 | 1.6 | 0.0 | 0.00 | 0.00 | 0.00 | 25 | 1004.8 |
| 20260504200026 | 22 | 55 | 1.6 | 0.0 | 0.00 | 0.00 | 0.00 | 28 | 1005.0 |
| 20260504194530 | 22 | 55 | 0.0 | 0.0 | 0.00 | 0.00 | 0.00 | 27 | 1005.2 |
| 20260504193020 | 22 | 46 | 0.0 | 0.0 | 0.00 | 0.00 | 0.00 | 31 | 1005.4 |
| 20260504191527 | 21 | 38 | 1.6 | 0.0 | 0.00 | 0.00 | 0.00 | 31 | 1005.5 |
| 20260504190014 | 21 | 38 | 0.0 | 0.0 | 0.00 | 0.00 | 0.00 | 30 | 1005.9 |
| 20260504184516 | 20 | 38 | 0.0 | 0.0 | 0.00 | 0.00 | 0.00 | 31 | 1006.2 |
| 20260504183051 | 20 | 38 | 0.0 | 0.0 | 0.00 | 0.00 | 0.00 | 31 | 1006.3 |
| 20260504181551 | 20 | 38 | 1.6 | 0.0 | 0.00 | 0.00 | 0.00 | 32 | 1006.5 |
| 20260504180044 | 19 | 33 | 0.0 | 0.0 | 0.00 | 0.00 | 0.00 | 32 | 1006.7 |
| 20260504174535 | 19 | 33 | 0.0 | 0.0 | 0.00 | 0.00 | 0.00 | 33 | 1006.9 |
| 20260504173034 | 18 | 30 | 0.0 | 0.0 | 0.00 | 0.00 | 0.00 | 37 | 1007.1 |
| 20260504171532 | 18 | 30 | 0.0 | 0.0 | 0.00 | 0.00 | 0.00 | 34 | 1007.2 |
| 20260504081528 | 11 | 30 | 0.0 | 0.0 | 0.00 | 0.00 | 0.00 | 42 | 1008.8 |
| 20260504044548 | 14 | 30 | 0.0 | 0.0 | 0.00 | 0.00 | 0.03 | 33 | 1008.5 |
| 20260504043048 | 15 | 30 | 0.0 | 0.0 | 0.00 | 0.00 | 0.03 | 33 | 1008.6 |
| 20260504041547 | 15 | 30 | 0.0 | 0.0 | 0.00 | 0.00 | 0.03 | 31 | 1008.5 |
| 20260504040110 | 16 | 30 | 0.0 | 0.0 | 0.00 | 0.00 | 0.03 | 29 | 1008.4 |
| 20260504034547 | 16 | 30 | 0.0 | 0.0 | 0.00 | 0.00 | 0.03 | 28 | 1008.4 |
| 20260504033035 | 17 | 30 | 0.0 | 0.0 | 0.00 | 0.00 | 0.03 | 26 | 1008.2 |
| 20260504031536 | 17 | 30 | 0.0 | 0.0 | 0.00 | 0.00 | 0.03 | 27 | 1008.1 |
| 20260504030033 | 17 | 30 | 0.0 | 0.0 | 0.00 | 0.00 | 0.03 | 24 | 1008.1 |
| 20260504024533 | 18 | 30 | 0.0 | 0.0 | 0.00 | 0.00 | 0.03 | 24 | 1007.9 |
| 20260504023032 | 18 | 30 | 0.0 | 0.0 | 0.00 | 0.00 | 0.03 | 25 | 1007.8 |
| 20260504021532 | 19 | 30 | 0.0 | 0.0 | 0.00 | 0.00 | 0.03 | 25 | 1007.8 |
| 20260504020031 | 20 | 30 | 0.0 | 0.0 | 0.00 | 0.00 | 0.03 | 23 | 1007.8 |
| 20260504014529 | 20 | 30 | 0.0 | 0.0 | 0.00 | 0.00 | 0.03 | 23 | 1007.9 |
| 20260504013017 | 21 | 30 | 0.0 | 0.0 | 0.00 | 0.00 | 0.03 | 24 | 1008.1 |